Race Results for
Nova National Stage Race NMBS #2 Presented by SOBE
Fountain Hills, AZ
(Event Information)
Cross Country on 04/05/2008

Note: Ranking points are NOT upgrade points. An explanation of ranking points can be found here.


Men - SP - Junior - 1-18

 Place Points NameCity, StateTime USAC #BibTeam
1412.50Ryan Geiger   Flagstaff, AZ1:27:28.20 258285  541 BIONICON
2440.71Daniel Conley   Payson, AZ1:27:28.20 251389  689 
3468.92Kallan Creager   Queen Creek, AZ1:27:30.17 255030  690 NOVA
4JAMES WESTON   1:43:44.15  681 ABSOLUTE
5525.34Tyler Coplea   Chandler1:48:59.28 196300  748 LANDIS/TRE
DNFJACK PATTON   DNF  535 ABSOLUTE

Men - SP - Senior - 19-29

 Place Points NameCity, StateTime USAC #BibTeam
1494.26zachary keller   Mesa, AZ1:28:28.26 257387  818 ADVENTURE
2CHRIS COOLEY   1:32:09.23  590 LANDIS CYC
3507.02Tyson Brown   El Paso, TX1:32:25.35 264695  523 THE BICYCL
4513.41Matt Kipper   Tempe, AZ1:33:28.17 271871  616 ASU CYCLIN
5MATTHEW SEVERSON   1:35:50.28  419 
6526.17Wilson Lee   Scottsdale1:36:14.04 140266  628 
7532.56David Thompson   Roscoe, IL1:39:31.48 153229  676 RIDE-AHOLI
8JASON SHAFER   1:39:58.01  822 
9545.32Nikolai Skievaski   Madison, WI1:40:58.03 260879  866 ASU
10ERIC BOHN   1:41:26.04  859 RED ROCK R
11558.09Aaron Johnson   Phoenix, AZ1:41:46.19 262527  609 LIVERMORE
12564.47Jack Johnson   Mesa, AZ1:42:36.21 172795  512 
13570.85Brennan Kim   Chandler, AZ1:46:10.21 254355  765 GLOBAL BIK
14KYLE JUSTICE   1:54:28.33  611 
15583.62Eli Owenby   Tucson, AZ2:01:31.09 155281  825 ASU CYCLIN
16ERIC SALETEL   2:04:28.11  735 SOBE CANNO

Men - SP - Master - 30-39

 Place Points NameCity, StateTime USAC #BibTeam
1430.25Daniel Naef   Tucson, AZ1:24:10.01 212788  643 SABINO CYC
2TIM ALLEN   1:24:12.03  755 
3CHAD WALTON   1:27:13.45  775 IE BIKES
4MIKE WIMBUSH   1:27:55.36  671 TEAM LANDI
5449.26Curtis Cramblett   San Jose, CA1:28:48.17 183932  427 
6ERIC GUST   1:29:13.30  619 
7458.77Erin Kelly   Phoenix, AZ1:29:14.26 243264  826 MISSING LI
8ZACH RADU   1:29:36.05  669 
9TROY BURNS   1:30:16.17  855 SABINO CYC
10473.03Don Blattert   Surprise, AZ1:30:36.07 271806  684 
11ERIC GREENWOOD   1:30:56.39  747 KUHL/SCOTT
12SANJAY GANJU   1:31:13.42  717 ALTERRA RA
13487.29Geoff Eyer   La Quinta, CA1:32:02.32 250409  856 PALM SPRIN
14CHRIS MOOR   1:32:49.17  734 
15COREY OBRIEN   1:33:36.34  645 PROCON/
16501.55David Craw   Mesa, AZ1:35:17.41 271720  802 SKA BREWIN
17BRIAN MURPHY   1:35:24.44  641 MISSING LI
18JASON SUAREZ   1:35:50.03  805 SWISS BIKE
19RICK BUCHER   1:37:18.11  829 PROCON
20BRETT CADIENTE   1:38:01.10  827 
21JOHN BIRD   1:39:34.47  833 
22530.06Brian Michaud   Rapid City, SD1:39:42.49 260866  638 
23TYSON MANUEL   1:40:12.01  806 
24539.57Chris Messina   Rancho Santa Margarita, CA1:42:50.30 239423  769 FLOW MG
25GEORGE HACKETT   1:43:17.44  815 4 PEAKS RA
26JASON WELBORN   1:43:35.38  679 
27SCOTT GIVENS   1:46:12.31  849 
28SCOTT BAJER   1:46:12.06  853 RED ROCK R
29563.34Tim Misavage   Tucson, AZ1:47:00.36 271892  820 
30TOM STACK   1:48:32.31  667 SWISS AMER
31DAVID LEVASSEUR   2:00:48.30  789 
32ANGELO GENNETTI   2:33:21.43  568 
33SEAN IRWIN   2:35:29.25  788 
DNFChad Rivetti   Westlake Village, CADNF 212335  564 TEAM BEARC
DNFGREG TRONE   DNF  796 
DNFBlake Marrou   New Braunfels, TXDNF 194302  633 NRC/PEDALM
DNFCHAD SHEIRBON   DNF  441 
DNFKevin Adair   Larchmont, NYDSQ 275428  739 PERFORMANC
DNFCHRIS PEREZ   DNF  698 

Men - SP - Master - 40-49

 Place Points NameCity, StateTime USAC #BibTeam
1462.36Brent Steiner   Mesa, AZ1:26:50.35 61688  668 
2466.76Dan Vasily   Cave Creek, AZ1:27:13.37 271993  430 ADRENALINE
3DANIEL KING   1:30:06.14  615 PROCON/1ST
4475.56Richard Kim   Anaheim Hills, CA1:30:30.39 246854  520 SHO-AIR/SO
5479.96Stephen Smith   Montrose , CA1:31:20.32 33294  418 TEAM SMITH
6484.36Robert McNulty   Phoenix, AZ1:32:26.08 125724  637 SWISS AMER
7488.76Steve Kelley   Salinas, CA1:33:00.18 204376  563 JOSELYNS
8493.17Randy Rush   Ramona, CA1:34:25.49 205171  460 BACKBONE
9497.57Kenneth Koch   Dewey, AZ1:34:42.11 255654  617 ABSOLUTE B
10TY GONZALEZ   1:35:55.40  468 
11JOHN FRITZ   1:36:20.40  598 LANDIS CYC
12510.77Noel Garcia   Phoenix, AZ1:37:43.40 177810  814 RAGE CYCLE
13EDWARD MERCADO   1:37:44.36  738 
14JIM CHOTT   1:37:44.12  586 
15KEN ROSS   1:37:56.06  657 
16528.38Dean Henthorn   Scottsdale, AZ1:38:01.47 234438  828 BICYCLE WO
17CHUCK BRUNI   1:38:48.02  776 ABSOLUTE B
18537.18Randy Harris   Tucson, AZ1:39:08.34 265192  604 ORO VALLEY
19MIKE VINES   1:39:53.29  848 
20STEVEN VAN COLLIE   1:39:58.36  797 
21550.39Thomas Gabehart   Poway, CA1:41:07.26 40110  426 CAL COAST
22BRAD HARRIS   1:41:12.18  721 
23STEVE LARSON   1:42:17.22  618 SWISS AMER
24563.59Guy Bell   Glendale, AZ1:42:47.10 142507  729 MISSING LI
25KENNETH KIMBLE   1:45:51.32  613 SWISS AMER
26LARRY AMBROSE   1:46:09.03  831 
27RUSS DOWN   1:49:18.28  742 KETO
28581.20Thomas Blaine   Highland, CA1:54:31.03 40752  800 JOSE OLE
29THOMAS QUEEN   1:55:56.10  857 GLOBAL BIK
30ERIC LYNCH   2:12:48.25  622 ADRENALINE
DNFKurt Mindy   Anthem, AZDNF 166882  640 SWISS AMER
DNFFrank Renner   Tempe, AZDNF 86851  699 
DNFJohn Haley   Castle Rock, CODNF 234292  723 

Men - SP - Master - 50-99

 Place Points NameCity, StateTime USAC #BibTeam
1540.00John Holthaus   Coto De Caza, CA1:32:58.25 273563  803 SHO-AIR/SO
2JOHN CAMORIANO   1:33:47.35  584 PRIMUS
3JIM AUWEN   1:35:46.03  437 ADVENTURE
4548.33Robert Gooch   Flagstaff, AZ1:37:03.18 196289  704 RED ROCK R
5MICHAEL WHITEHEAD   1:37:18.29  682 
6DREW PALMER   1:38:23.16  647 
7556.67Mike Hicks   Fountain Hills, AZ1:38:50.09 16109  424 LANDIS
8559.44Douglas Thompson   Phoenix, AZ1:41:23.02 240769  560 PROCON/IST
9BRADY BOTTOMS   1:44:15.04  580 
10565.00Steven Miller   Lake Stevens, WA1:44:31.13 203491  547 BICYCLE CE
11567.78Jean-Michel Bosch   Scottsdale, AZ1:45:59.17 256474  709 STRADA RAC
12ROB HEHLEN   1:47:05.25  760 
13JIM STABLER   1:47:31.49  670 SCF ARIZON
14576.11James Cox   Glendale, AZ1:49:55.34 187634  743 \
15GARY HANNA   1:55:13.26  602 
16581.67William Gauditz   Denver, CO1:56:36.31 226364  756 SINGLETRAX
17584.44Donald Guggia   Ventura, CA2:01:10.18 14373  425 
18587.22Fred Froemel   El Paso, TX2:03:23.06 220462  501 CRAZY CAT
19SCOTT RICHARDS   2:12:44.00  550 

Men - Cat 1/2/3 - Senior

 Place Points NameCity, StateTime USAC #BibTeam
1540.00C Kevin Utley   Oro Valley, AZ1:32:13.22 68673  678 ORO VALLEY
1JON SHOUSE   1:42:13.20  794 GIANT-SABI
2EVAN SMITH   1:32:56.40  810 
2547.50Ed Neilson   Phoenix, AZ1:43:49.03 25814  565 MISSING LI
3550.00Terry Jasper   Glendale, AZ1:34:58.07 128084  844 
3ISAAC TAFOYA   1:45:50.11  852 GORDYS BIC
4DON MILLER   1:35:09.16  639 
4CHRIS HEDRICK   1:50:24.31  821 
5FREDERICK IVY   1:37:51.12  553 PRIMUS
5DARREN SCHIFFER   1:50:45.34  705 
6JOSE AVILA   1:38:44.22  578 SWISS AMER
6LANCE NORICK   2:00:50.18  807 FLAT TIRE
7JAMIE SEEGERT   1:44:37.20  658 TRIBE MULT
7ANDY GEIGER   2:02:16.44  834 LANDIS
8CHAD KASMAR   1:45:48.11  496 ORO VALLEY
8TIM SPICER   2:15:30.48  673 TRIBE MULT
9JEROME LACOTE   1:50:46.44  491 JAY THE HI
9582.50David Needham   Flagstaff, AZ2:43:51.04 272089  573 ABSOLUTE B
10MIKE MAEZ   1:51:32.17  804 SKA RACING
10JOHN MELLIN   3:11:10.10  758 11TH ST RE
11RYAN NEIFFER   2:27:49.31  644 MISSING LI
DNFJONATHAN SELLWOOD   DNF  847 

Men - Cat 1/2/3 - Master - 60-99

 Place Points NameCity, StateTime USAC #BibTeam
1540.00Tommy Collins   Phoenix, AZ0:51:05.09 168694  728 GORDYS BIC
2CARL SCHOTT   0:51:34.16  793 MIKES BIKE
3DOUGLAS BROWN   0:53:02.35  582 ZOOMERS BI
4570.00Edward Laird   Phoenix, AZ0:57:42.06 125728  843 
5WILLIAM GARAN   0:59:01.26  785 MISSING LI
6REGGIE CURRIE   1:01:28.39  706 ESCAPE ADV

Men - BG - Junior - 1-10

 Place Points NameCity, StateTime USAC #BibTeam
1540.00Brandon McNulty   Phoenix, AZ0:36:37.03 275694  636 SWISS AMER
2JASON CHRISTLEY   0:41:02.36  587 
3565.00David Polley   Peoria, AZ0:43:15.22 271015  652 UNATTACHED
4RYAN DAVENHAUER   0:55:09.09  870 SWISS AMER
5LOGAN TITUS-ZIMMERSCHIE   1:11:48.00  701 

Men - BG - Junior - 11-12

 Place Points NameCity, StateTime USAC #BibTeam
1540.00Cameron Williams   Big Bear City, CA0:33:14.50 245456  524 BEAR VALLE
2548.33Evan Williams   Big Bear City, CA0:36:23.26 255194  515 BEAR VALLE
3TREVOR TITUS-ZIMMERSCHIE   0:44:47.17  702 
4EROWYNN MAUL-LATHAM   0:45:45.44  696 DESERT DOG
5BRENDEN LATHAM   0:46:11.30  863 ABSOLUTE B
6DENNIS DROTZMANN   0:48:29.35  594 
7JACK LUCYSZYN   0:48:39.23  854 

Men - BG - Junior - 13-14

 Place Points NameCity, StateTime USAC #BibTeam
1458.48TYLER SANDOVAL   Flagstaff, AZ0:30:44.37 272774  764 ABSOLUTE B
2467.85Kenny Polley   Peoria, AZ0:30:47.05 255203  653 UNATTACHED
3477.22Colton Taylor   Mesa, AZ0:31:21.45 271968  674 
4KYLE WILLETT   0:31:37.22  620 
5GARRETT CHOTT   0:31:59.05  585 NOVA YOUTH
6505.33John Corl   Colorado Springs, CO0:32:33.06 272295  428 
7KOLLIN KING   0:33:58.37  544 THE HAMM T
8JORDAN YANOW   0:34:13.10  864 PRIMUS
9D.J. SERRANO   0:34:50.47  660 
10DAVIS HOYT   0:35:01.26  840 
11552.18Jordon Lindberg   Phoenix, AZ0:35:22.22 256972  860 PRIMUS CYC
12ERIK MCKINNEY   0:40:46.20  635 ORO VALLEY
13LUKAS CRONIN   0:45:44.32  591 

Men - BG - Junior - 15-16

 Place Points NameCity, StateTime USAC #BibTeam
1JACOB IVY   0:47:57.01  552 PRIMUS
2450.59Cypress Gorry   Brevard, NC0:49:13.39 219681  819 
3NICK KEY   0:50:31.07  559 
4485.44Jordan Woodard   Queen Creek, AZ0:50:53.34 256433  683 QUEEN CREE
5502.87Evan Broby   Gilbert, AZ1:00:47.00 271542  581 NOVA YOUTH
6ZACHARY DRUM   1:01:00.01  733 
7537.72Daniel Schick   Queen Creek, AZ1:01:53.30 254613  725 QUEEN CREE
8DEREK LARSON   1:10:39.40  626 SWISS AMER
9MIKE WILKINS   1:22:51.38  623 
10WYATT SWITZER   1:30:36.19  625 WEST SEDON
DNFDYLAN KOPE   DNF  624 

Men - BG - Junior - 17-18

 Place Points NameCity, StateTime USAC #BibTeam
1JEREMY SCHENCK   0:59:23.13  621 
2MARCUS GRUNDY   1:06:57.43  693 
3JOHN WILLIS   1:23:44.01  798 LOS MAGNIF

Men - BG - Senior - 19-29

 Place Points NameCity, StateTime USAC #BibTeam
1540.00Brock Boynton   Madison, WI0:43:50.47 264070  754 TASER INTE
2DAVID ERB   0:45:39.37  595 TEAM PRIMU
3ROBERT TERRIN   0:48:09.29  837 
4JASON HALL   0:50:15.28  836 
5THOMAS SCHICK   1:08:30.47  720 NYCF
6AUSTIN DRUM   1:22:33.00  731 NOVA YOUTH

Men - BG - Master - 30-39

 Place Points NameCity, StateTime USAC #BibTeam
1AARON CHARLTON   0:47:32.02  865 
2LOMAX BOYD   0:47:36.27  687 
3CRAIG GREGORY   0:47:38.05  786 JAVELINA
4CHRISTOPHER COLE   0:47:50.06  449 
5JEREMY JOHNSTON   0:50:41.19  610 
6JASON MCKINNEY   0:50:42.17  817 SWISS-AMER
7CHRIS HANSEN   0:52:05.33  753 MISSING LI
8NOEL GOMEZ   0:52:07.31  757 MIKES BIKE
9KEITH HUBBARD   0:52:36.12  650 
10PRUETTHIPONK WONGMANEE   0:52:37.33  823 
11DOMINIQUE HINOJOSA   0:53:18.42  850 
12JORGE MERAZ   0:54:00.15  685 
13580.00Matthew Savidge   Scottsdale, AZ0:56:17.06 234816  816 
14MARTY COPLEA   0:56:42.43  749 LANDIS/TRE
15BRANNEN MAPLES   0:59:27.16  858 
16REID ANDERSON   1:14:31.03  868 
DNFDAVID DE NITO   DNF  824 GORDYS BIC

Men - BG - Master - 40-49

 Place Points NameCity, StateTime USAC #BibTeam
1WILLIAM STEVENS   0:46:32.31  572 
2WARREN GIBB   0:48:05.23  599 
3DANIEL FISHER   0:48:12.24  830 
4546.52Grant Taylor   Mesa, AZ0:48:12.14 210372  675 
5548.70Keith Wilson   Tempe, AZ0:49:35.42 220715  665 
6DENVER MCKINNEY   0:49:36.04  634 ORO VALLEY
7DAVID PECK   0:49:41.34  651 
8BRIAN WELLESS   0:52:09.42  838 
9MIKE TISDALE   0:53:48.35  862 
10RICHARD HARDMAN   0:53:56.11  603 
11MICHAEL SHEPTIN   0:54:08.18  663 
12BRENT KINSER   0:54:18.08  808 
13ROY KEY   0:55:26.32  558 
14RICHARD MEYERS   0:56:25.06  771 
15THOMAS WICHERT   0:57:41.22  664 
16572.61Dino D'Romero   Gilbert, AZ0:57:43.21 271477  593 GLOBAL BIK
17DAN SERRANO   0:59:47.21  661 
18576.96Ken Segel   Phoenix, AZ1:02:14.22 265120  659 
19PATRICK KIVIN   1:03:00.24  811 
20MICHAEL SCHICK   1:09:19.03  722 
21TOM HANSEN   1:11:51.26  730 FOUR PEAKS
22MILTON MEANS   1:12:15.32  835 
23DAVID LEMON   1:23:41.19  629 
24JOE TROGGIO   2:02:12.12  795 
DNFTONY SEELEY   DNF  842 ADRENALINE

Men - BG - Master - 50-59

 Place Points NameCity, StateTime USAC #BibTeam
1THOMAS DAHL   0:47:29.05  592 
2TONY BARTHOLOMA   0:49:54.23  762 
3KEVIN MILAN   0:50:53.43  801 SKA BREWIN
4570.00Peter Hogan   Phoenix, AZ0:54:02.44 195446  607 PROCON/UTA
5580.00Dave Baker   Phoenix, AZ0:54:07.36 255957  579 
6RICARDO WILLIS   1:07:36.39  799 LOS MAGNIF

Women - SP - Senior - 19-39

 Place Points NameCity, StateTime USAC #BibTeam
1477.45Michelle Monroe   Salinas, CA1:38:57.23 203968  519 JOSELYNS/B
2SENTA GIVENS   1:45:34.36  851 
3498.67Cindy McFarland   Glendale, AZ1:46:18.28 111888  846 SABINO CYC
4JENNIFER CAMORIANO   1:48:36.00  583 PRIMUS
5519.89chelsea west   Williamsburg, VA1:50:23.19 263223  548 BIKES UNLI
6MARIA PASTORE   1:52:39.39  518 
7RACHEL TROUTE   1:56:48.32  431 
8551.72Hillary Mathis   Oro Valley, AZ1:59:51.47 260518  695 
9DANIELLE DECARO   2:00:00.47  839 TRIBE MULT
10572.94Rebekah Muster   Phoenix, AZ2:06:00.17 168772  642 
11583.55Kelly Emich   Boulder, CO2:06:19.14 277572  727 COMOTION
DNFCARLA KNOCHEL   DNF  627 

Women - SP - Master - 40-99

 Place Points NameCity, StateTime USAC #BibTeam
1JEANETTE WESLEY   1:56:50.15  680 TRIBE MULT
2LISA HELLMAN   1:57:28.45  606 
3JOYCE PALMER   1:58:45.38  648 
4HAYLEY WIHONGI   2:03:52.09  555 NOVA CYCLI
5590.00Anita Switzer   Flagstaff, AZ2:34:51.26 215551  439 ABSOULTE B

Women - Cat 1/2/3 - Senior

 Place Points NameCity, StateTime USAC #BibTeam
1DEBBIE LUPNACCA   1:32:48.50  832 

Women - BG - Junior - 1-12

 Place Points NameCity, StateTime USAC #BibTeam
1528.89Kendra Wiebers   Mesa, AZ0:36:40.00 271873  453 
2CHELSEA TITUS-ZIMMERSCHIE   0:56:21.38  700 
3TESS SIEMENS   0:57:00.24  672 ABSOLUTE B
4LINDSEY MCKINNEY   1:11:47.44  576 
5TABITHA MCKINNEY   1:12:12.27  575 

Women - BG - Junior - 12-14

 Place Points NameCity, StateTime USAC #BibTeam
1ALLIE LESLIE   0:44:48.16  869 
2KYIA LIVELY   0:58:14.06  630 
3JACKIE WHITING   1:11:48.24  712 QUEEN CREE

Women - BG - Junior - 15-16

 Place Points NameCity, StateTime USAC #BibTeam
1Celeste Garcia   Phoenix, AZ1:14:32.09 207771  812 RAGE CYCLE

Women - BG - Senior - 19-29

 Place Points NameCity, StateTime USAC #BibTeam
1SAORI NAGAO   0:54:26.40  867 SOUTH MOUN
2ASHLEY COX   0:56:43.43  779 
3590.00Aubrey Garcia   Phoenix, AZ1:09:12.10 187105  813 RAGE CYCLE

Women - BG - Master - 30-39

 Place Points NameCity, StateTime USAC #BibTeam
1SHAWNA YOST   1:00:30.17  861 
2Cheryl Ekstrom   Tucson, AZ1:13:11.09 142179  845 SABINO CYC

Women - BG - Master - 40-49

 Place Points NameCity, StateTime USAC #BibTeam
1KIMBERLY WACK   0:58:56.17  841 ADRENALINE
2JOANNE GEIGER   1:00:26.32  539 ABSOLUTE
3BETH COX   1:01:51.35  780 
4CARIN SHEPTIN   1:02:33.29  662 
5HILAIRY HARTNETT   1:11:45.45  605 

Report missing or incorrect license numbers

Volkswagen
Bonk BreakerCUOREUSACDFSpySierra NevadaShimano
UCI USA Cycling is the official governing body for all disciplines of competitive cycling in the United States. The 501c3, membership-based organization aims both to achieve sustained success in international cycling competition and to grow competitive cycling in America while delivering an exceptional customer experience.
View Children's Online Privacy Protection Policy
US Olympic Committee